Location: Ingoldesthorpe
(52.8667°N, 0.5167°E)
Time: 15:21:26
(UTC+00:00)

Nadezhda 3 Rocket - Pass Details

Date: 19 May 2025
Orbit: 957 x 997 km, 82.9° (Epoch: 17 June)

Event Time Altitude Azimuth Distance (km) Brightness Sun altitude
Exits shadow 23:06:39 16° 208° (SSW) 2,299 5.5 -16.4°
Maximum altitude 23:11:39 60° 285° (WNW) 1,102 4.4 -16.6°
Drops below altitude 10° 23:17:51 10° 6° (N) 2,740 7.6 -16.7°
Sets 23:20:26 0° 10° (N) 3,698 8.5 -16.8°
